Welcome to the New NWS' Forecast!
Most changes are behind the scenes, but click here for differences you might notice.
Latest weather observations around

Harrison, Boone County Airport (KHRO)

Using English Units (Switch to International System of Units)
Date/ Time (CST) Wind (mph) Vis. (mi) Weather Sky Cond. Temp (°F) Rel. Humidity Wind Chill (°F) Heat Index (°F) Pressure Precip. (in)
Air Dwpt 6 hour Altimeter (inHg) Sea level (inHg) 1 hr 3 hr 6 hr
Max Min
Nov 18 01:53 SSW 13 10 Clear CLR 70 62     76%     29.53 29.49      
Nov 18 00:53 SSW 15 10 Clear CLR 70 62     76%     29.56 29.53      
Nov 17 23:53 S 11 10 Clear CLR 69 62     78%     29.59 29.55      
Nov 17 22:53 SSW 13 10 Clear CLR 69 61     75%     29.61 29.58      
Nov 17 21:53 SSW 10 10 Clear CLR 68 61     78%     29.64 29.61      
Nov 17 20:53 S 11 10 Mostly Clear FEW027 68 61     78%     29.66 29.64      
Nov 17 19:53 S 13 10 Mostly Clear FEW024 68 61     78%     29.66 29.63      
Nov 17 18:53 S 17 10 Clear CLR 67 61     81%     29.65 29.63      
Nov 17 17:53 S 15 10 Mostly Clear FEW021 66 61     84%     29.67 29.65      
Nov 17 16:53 S 16 10 Partly Cloudy SCT025 66 60     81%     29.69 29.67      
Nov 17 15:53 S 17 10 Mostly Cloudy BKN020 66 60     81%     29.7 29.67      
Nov 17 14:53 S 15 10 Cloudy BKN018 OVC025 65 59     81%     29.72 29.7      
Nov 17 14:04 S 14 10 Cloudy OVC016 64 59     84%     29.75        
Nov 17 13:53 S 11 10 Cloudy OVC014 63 59     87%     29.76 29.74      
Nov 17 12:53 S 14 10 Cloudy OVC011 62 57     84%     29.79 29.78      
Nov 17 12:06 S 14 10 Cloudy OVC010 60 56     86%     29.83        
Nov 17 11:53 S 10 10 Cloudy OVC009 60 56     86%     29.84 29.83      
Nov 17 11:04 S 11 9 Cloudy OVC009 59 56     90%     29.88        
Nov 17 10:53 S 15 9 Cloudy OVC010 59 55     87%     29.88 29.87      
Nov 17 09:53 S 13 10 Cloudy OVC011 57 53     87%     29.92 29.91      
Nov 17 08:53 SSE 15 10 Cloudy OVC014 56 51     84%     29.94 29.93      
Nov 17 07:53 SSE 14 10 Cloudy OVC012 55 50     83%     29.96 29.96      
Nov 17 06:53 SSE 15 10 Cloudy OVC013 54 49     83%     29.97 29.96      
Nov 17 05:53 SSE 15 10 Cloudy OVC014 53 48     83%     30 29.99      
Nov 17 04:53 SE 13 10 Cloudy OVC013 54 49     83%     30.01 29.99      
Nov 17 04:00 SE 13 10 Cloudy OVC014 54 49     83%     30.03        
Nov 17 03:53 SE 14 10 Cloudy OVC015 54 49     83%     30.03 30.01      
Nov 17 02:53 SSE 10 10 Cloudy OVC015 54 49     83%     30.03 30.01      
Nov 17 02:34   10 Cloudy BKN015 OVC075 53 48     83%     30.03        
Nov 17 02:04 SSE 13 10 Cloudy SCT012 SCT050 OVC075 53 48     83%     30.04        
Nov 17 01:53 SE 14 10 Cloudy BKN013 BKN049 OVC080 53 47     80%     30.04 30.03      
Nov 17 00:53 SE 13 10 Cloudy OVC014 51 44     77%     30.06 30.05      
Nov 17 00:44 SE 10 10 Cloudy OVC014 51 44     77%     30.07        
Nov 16 23:53 SE 13 10 Cloudy OVC016 51 43     74%     30.08 30.07      
Nov 16 22:53 SE 8 10 Cloudy BKN017 OVC070 51 42     71%     30.09 30.08      
Nov 16 22:49 SE 8 10 Cloudy BKN017 BKN050 OVC070 52 43     71%     30.09        
Nov 16 21:53 SE 8 10 Cloudy OVC050 50 43     77% 47   30.1 30.09      
Nov 16 20:53 SE 7 10 Clear CLR 49 42     77% 46   30.1 30.1      
Nov 16 19:53 SSE 6 10 Clear CLR 48 40     73% 45   30.1 30.11      
Nov 16 18:53 SSE 6 10 Clear CLR 51 40     65%     30.12 30.12      
Nov 16 17:53 E 3 10 Clear CLR 54 40     59%     30.11 30.11      
Nov 16 16:53 SE 7 10 Clear CLR 57 40     53%     30.09 30.09      
Nov 16 15:53 SSE 9 10 Clear CLR 61 40     46%     30.09 30.09      
Nov 16 14:53 SSE 8 10 Clear CLR 61 38     42%     30.11 30.11      
Nov 16 13:53 SSE 7 10 Clear CLR 59 38     45%     30.13 30.13      
Nov 16 12:53 SSE 9 10 Clear CLR 57 34     42%     30.15 30.15      
Nov 16 11:53 SE 6 10 Clear CLR 54 35     49%     30.19 30.19      
Nov 16 10:53 Calm 10 Clear CLR 52 34     50%     30.23 30.23      
Nov 16 09:53 ESE 6 10 Clear CLR 48 36     63% 45   30.24 30.24      
Nov 16 08:53 SSE 5 10 Clear CLR 46 36     68% 44   30.24 30.24      
Nov 16 07:53 S 3 10 Clear CLR 39 35     86% 37   30.22 30.23      
Nov 16 06:53 Calm 10 Clear CLR 37 34     89%     30.22 30.22      
Nov 16 05:53 W 3 10 Clear CLR 37 34     89% 35   30.2 30.21      
Nov 16 04:53 NW 3 10 Clear CLR 40 34     79% 38   30.19 30.19      
Nov 16 03:53 W 3 10 Clear CLR 40 35     83% 38   30.19 30.18      
Nov 16 02:53 WNW 3 10 Clear CLR 38 35     89% 36   30.2 30.19      
Nov 16 01:53 NW 3 10 Clear CLR 41 35     79% 39   30.18 30.18      
Nov 16 00:53 Calm 10 Clear CLR 42 36     79%     30.18 30.17      
Nov 15 23:53 W 5 10 Clear CLR 44 37     76% 41   30.19 30.18      
Nov 15 22:53 WNW 6 10 Clear CLR 44 39     82% 41   30.18 30.18      
Nov 15 21:53 NW 7 10 Clear CLR 47 38     71% 44   30.17 30.16      
Nov 15 20:53 WNW 5 10 Clear CLR 49 40     71% 47   30.16 30.15      
Nov 15 19:53 NNW 5 10 Clear CLR 50 41     71% 48   30.14 30.14      
Nov 15 18:53 NW 5 10 Clear CLR 52 44     74%     30.13 30.12      
Nov 15 17:53 NW 3 9 Clear CLR 55 46     72%     30.11 30.1      
Nov 15 16:53 NW 5 10 Clear CLR 59 50     72%     30.09 30.07      
Nov 15 16:02 WNW 6 10 Partly Cloudy SCT028 62 52     70%     30.07        
Nov 15 15:53 NNW 9 10 Mostly Cloudy BKN028 62 52     70%     30.07 30.05      
Nov 15 15:49 NW 7 10 Mostly Cloudy BKN028 63 52     68%     30.07        
Nov 15 14:53 5 10 Partly Cloudy SCT024 61 53     75%     30.06 30.05      
Nov 15 14:13 NW 10 10 Cloudy FEW013 OVC019 59 54     83%     30.06        
Nov 15 14:00 NW 9 10 Cloudy BKN014 OVC022 59 55     87%     30.05        
Nov 15 13:53 NW 7 10 Cloudy SCT012 OVC022 59 55     87%     30.05 30.03      
Nov 15 12:53 NNW 7 9 Cloudy OVC015 60 56     86%     30.03 30.02      
Nov 15 12:39 NW 8 9 Mostly Cloudy FEW008 BKN015 61 56     83%     30.03        
Nov 15 12:29 7 8 Mostly Cloudy BKN010 BKN015 62 57     84%     30.03        
Nov 15 11:53 NW 8 5 Fog/Mist OVC007 58 57     97%     30.05 30.03     0
Nov 15 11:07 WNW 8 8 Cloudy BKN007 OVC012 58 57     97%     30.06        
Nov 15 10:53 WNW 9 8 Cloudy OVC011 58 57     97%     30.06 30.04      
Nov 15 10:23 WNW 6 6 Fog/Mist FEW008 BKN013 OVC020 57 57     100%     30.05        
Nov 15 09:53 WNW 7 10 Cloudy OVC021 58 56     93%     30.04 30.03 0    
Nov 15 09:35 NW 5 10 Cloudy BKN024 BKN029 OVC035 58 57     97%     30.03   0    
Nov 15 09:21 WNW 3 10 Cloudy FEW024 BKN030 OVC048 58 57     97%     30.03   0    
Nov 15 09:05 WNW 5 9 Light Rain BKN027 BKN037 OVC046 57 57     100%     30.03   0    
Nov 15 08:53 Calm 6 Light Rain and Fog/Mist FEW018 SCT030 OVC045 58 57     97%     30.03 30.02 0 0  
Nov 15 08:30 Calm 6 Light Rain and Fog/Mist SCT018 BKN024 OVC060 57 56     96%     30.03   0    
Nov 15 07:53 Calm 10 Cloudy FEW035 BKN049 OVC085 56 56     100%     30.01 30 0    
Nov 15 07:46 SSW 5 10 Cloudy FEW037 BKN049 OVC090 56 56     100%     30   0    
Nov 15 07:08 Calm 3 Rain and Fog/Mist FEW022 BKN049 OVC080 57 55     93%     30   0    
Nov 15 07:02 WSW 5 2 Heavy Rain and Fog/Mist SCT022 BKN045 OVC080 58 55     90%     29.99   0    
Nov 15 06:53 SW 9 6 Light Rain and Fog/Mist SCT022 BKN032 OVC070 58 54     87%     29.99 29.98 0    
Nov 15 06:44 NW 6 9 Light Rain SCT022 BKN028 OVC048 58 53     84%     29.99   0    
Nov 15 05:53 SSE 14 10 Mostly Cloudy FEW041 BKN100 55 52     89%     29.94 29.93 0   0
Nov 15 04:53 S 14 10 Cloudy SCT049 OVC065 57 51     81%     29.95 29.94 0    
Nov 15 03:53 S 11 10 Cloudy OVC090 56 49     77%     29.96 29.95      
Nov 15 02:53 SSE 10 10 Cloudy SCT050 OVC075 55 48     77%     29.99 29.99      
Jun 12 02:53 SE 8 10 Clear CLR 71 67     87%   72 29.99 29.94      
Jun 11 14:53 S 11 10 Clear   84 66     55%   86 30.02 29.97      
Jun 11 13:53   10 Mostly Clear FEW046 83 64     53%   84 30.02 29.97      
Jun 11 04:53 S 7 10 Clear CLR 68 63     84%     29.98 29.93      
Jun 10 18:53 S 10 10 Clear CLR 78 64     62%   79 29.92 29.89      
Jun 10 13:53 SSE 11 10 Clear CLR 81 63     54%   82 29.96 29.93      
Jun 10 12:53 SSE 13 10 Clear CLR 80 61     52%   81 29.97 29.94      
Jun 09 19:53 S 6 10 Clear CLR 74 58     57%   74 29.92 29.88      
Jun 08 07:53 W 5 10 Clear CLR 59 54     83%     30.08 30.05      
Jun 07 10:53 ENE 6 10 Clear CLR 70 54     57%     30.08 30.05      
Jun 06 11:53 N 8 10 Clear CLR 81 67     62%   83 29.93 29.88